Wind_Speed
9 8 6 5 6 6 6 9 8 7 6 10 14 17 11 10 13 11 8 6 7 7 8 8 9 10 11 13 13 14 16 17 15
10 8 9 8 7 8 7 6 7 6 6 12 13 16 13 12 12 12 7 7 7 6 6 7 8 9 10 12 13 13 15 17 15
12 11 9 7 7 6 8 8 7 6 5 11 12 13 11 8 11 11 13 12 6 5 5 5 6 7 8 9 11 11 12 14 12
12 10 9 8 6 6 7 7 7 8 8 8 10 11 10 7 6 10 11 13 11 10 6 4 5 6 6 8 7 9 10 11 12
7 6 5 4 3 5 6 6 6 8 9 10 10 12 12 9 7 7 7 9 7 8 9 5 4 5 5 6 9 8 9 11 9
8 7 6 4 3 3 3 6 7 8 11 12 13 13 13 12 11 8 7 7 7 6 5 2 3 3 4 5 8 9 8 9 7
7 6 5 6 6 5 5 5 6 9 10 12 13 15 13 12 10 10 8 8 8 7 6 4 2 1 3 4 5 7 7 7 7
9 8 7 7 7 5 5 6 7 7 9 13 15 14 13 14 11 8 8 5 7 6 6 5 4 2 2 2 3 6 7 7 6
9 7 7 7 6 5 5 5 5 7 9 11 13 14 14 14 12 12 13 12 8 6 4 4 6 5 4 5 5 5 7 8 7
9 8 7 6 6 6 6 5 6 8 8 10 11 12 13 13 14 15 14 15 15 13 14 13 16 16 14 13 10 8 8 7 8
10 9 8 6 5 4 5 5 6 7 8 9 10 11 12 14 14 14 13 14 15 16 16 19 20 17 14 14 12 11 10 8 8
11 10 9 7 7 6 6 6 6 6 7 8 8 10 11 12 14 15 16 19 17 15 16 18 20 19 18 16 14 12 12 11 8
12 10 9 8 8 7 6 7 6 6 7 7 8 8 9 10 13 13 15 16 19 20 17 17 18 20 19 18 18 16 17 16 16
11 9 9 8 7 7 7 6 6 6 6 7 7 7 7 9 10 11 13 14 16 18 22 23 22 21 20 19 20 17 14 13 16
11 10 9 9 9 8 8 8 7 6 6 6 6 6 6 7 7 8 9 10 11 13 14 15 17 19 20 24 26 25 22 18 17
10 9 7 6 5 5 5 5 7 7 8 6 3 2 3 5 5 7 7 7 8 9 10 10 11 12 12 14 17 18 20 22 23
11 9 8 7 6 5 5 5 4 5 8 7 3 0 1 4 6 6 6 6 6 6 7 7 7 10 10 12 12 12 14 17 24
9 8 7 7 6 6 5 5 4 5 5 7 5 5 2 2 1 4 8 7 7 6 6 6 6 8 8 9 9 11 12 12 13
10 9 8 7 5 5 5 5 5 5 6 6 6 5 5 4 2 1 2 2 5 6 6 7 7 8 9 10 9 9 11 12 13
11 9 7 6 5 4 5 5 6 6 4 5 5 4 4 5 4 2 2 3 4 5 6 7 8 7 10 11 10 11 11 12 12
Wind_Direction
198 194 203 182 166 158 169 182 180 216 159 151 138 128 132 118 143 141 124 84 96 97 92 97 103 99 88 94 93 92 94 101 110
210 209 199 194 195 180 177 193 189 196 195 162 151 148 157 143 137 152 128 104 90 93 103 99 113 112 102 103 105 101 96 104 109
199 197 198 198 181 182 182 193 197 183 172 165 167 168 178 176 152 144 135 102 94 99 107 111 113 124 121 108 106 107 114 109 108
197 202 202 190 185 168 173 181 179 178 177 173 178 183 191 197 156 165 155 130 119 103 95 122 135 127 137 135 120 114 124 129 116
205 207 216 224 210 184 171 165 176 175 183 189 193 191 195 202 187 183 194 165 156 138 117 107 158 141 140 143 145 129 124 139 123
206 211 229 238 233 238 221 194 187 186 182 188 193 196 203 201 201 204 217 218 182 185 180 178 71 141 150 143 155 151 136 142 143
193 210 220 244 254 235 227 232 218 207 195 194 194 196 202 214 209 216 217 230 233 198 214 225 253 80 102 166 177 190 179 159 156
204 213 222 223 222 218 211 205 211 213 214 204 204 205 208 213 211 217 214 221 244 227 219 231 238 242 222 177 180 200 202 197 188
215 211 212 217 215 202 193 195 200 207 208 212 214 211 211 214 210 213 219 210 173 135 180 233 229 247 250 235 205 192 202 211 211
204 209 211 208 209 211 207 195 198 195 201 209 212 214 216 217 208 213 210 211 214 202 172 156 145 148 199 204 198 199 212 205 209
199 202 206 208 210 217 217 209 198 200 200 202 200 207 209 211 214 212 199 206 212 217 197 192 181 185 203 222 230 229 225 224 225
201 205 203 202 205 205 207 212 212 209 204 206 207 204 208 213 220 216 213 199 202 210 212 213 209 214 213 223 236 239 248 254 246
203 205 203 203 203 202 206 204 205 209 210 208 208 211 214 214 219 218 219 219 218 211 214 216 221 228 229 234 234 243 254 256 264
199 195 195 194 199 205 204 206 202 194 192 206 214 216 211 216 222 224 224 221 223 227 227 227 225 231 234 239 244 243 241 240 241
193 190 188 189 190 191 195 188 193 197 167 199 196 208 212 222 230 231 228 227 226 229 233 232 235 239 239 241 245 245 243 240 243
192 189 188 185 172 170 175 184 181 183 184 177 183 191 220 223 225 232 232 232 226 231 235 236 242 245 245 246 243 245 241 232 236
191 189 184 178 177 173 170 173 157 156 179 172 166 210 200 227 242 246 244 238 243 238 247 250 241 244 245 245 247 243 232 228 228
184 185 182 188 185 180 175 181 190 156 166 191 180 164 134 161 254 265 255 255 256 264 261 260 264 258 253 252 244 249 251 248 246
184 187 184 179 183 168 165 159 174 188 168 172 196 197 167 168 183 327 8 291 271 269 271 276 274 276 275 268 268 256 253 255 252
184 182 178 179 178 170 169 165 165 184 181 176 174 167 167 182 180 116 58 324 317 298 282 276 273 269 273 282 281 278 272 268 270
Height
1537 1539 1541 1542 1544 1546 1548 1550 1551 1553 1554 1556 1557 1558 1558 1559 1561 1561 1562 1563 1563 1564 1564 1565 1565 1566 1567 1568 1569 1570 1571 1572 1574
1536 1537 1540 1541 1544 1545 1547 1550 1552 1552 1554 1556 1558 1557 1557 1558 1561 1561 1563 1565 1565 1566 1566 1566 1567 1568 1568 1570 1571 1572 1573 1574 1575
1534 1536 1538 1540 1542 1544 1546 1549 1551 1552 1554 1555 1557 1558 1558 1559 1560 1561 1562 1565 1566 1567 1568 1568 1569 1569 1570 1572 1573 1574 1575 1576 1578
1535 1536 1538 1539 1542 1543 1546 1549 1549 1550 1553 1554 1556 1558 1559 1559 1560 1562 1563 1564 1568 1568 1569 1569 1570 1571 1572 1573 1574 1576 1577 1578 1579
1535 1537 1540 1540 1541 1544 1545 1546 1548 1549 1551 1552 1554 1557 1557 1559 1561 1562 1564 1566 1568 1568 1569 1570 1571 1572 1572 1574 1575 1577 1578 1579 1581
1533 1535 1537 1539 1541 1543 1544 1545 1546 1548 1550 1551 1553 1555 1557 1558 1560 1561 1564 1567 1567 1569 1569 1571 1573 1573 1572 1575 1576 1577 1579 1580 1582
1531 1533 1534 1537 1538 1541 1543 1544 1547 1548 1548 1549 1552 1553 1554 1559 1558 1561 1563 1564 1567 1568 1569 1571 1573 1573 1574 1575 1577 1578 1579 1581 1582
1528 1531 1533 1535 1537 1538 1540 1543 1545 1546 1547 1549 1551 1552 1555 1556 1558 1561 1561 1562 1566 1568 1568 1570 1572 1573 1574 1575 1576 1579 1580 1581 1582
1527 1528 1530 1532 1534 1536 1538 1540 1541 1542 1545 1548 1550 1552 1553 1554 1556 1557 1559 1562 1564 1566 1567 1569 1571 1572 1573 1575 1575 1578 1579 1580 1581
1525 1527 1529 1531 1532 1534 1535 1537 1540 1542 1544 1546 1548 1549 1550 1553 1554 1557 1559 1559 1561 1564 1566 1567 1568 1570 1570 1571 1573 1576 1579 1579 1579
1524 1526 1528 1530 1532 1533 1534 1536 1538 1540 1542 1544 1545 1546 1548 1551 1553 1554 1557 1557 1560 1562 1564 1564 1566 1568 1570 1571 1572 1575 1577 1579 1579
1523 1525 1527 1529 1530 1532 1533 1535 1536 1537 1539 1541 1542 1544 1545 1547 1549 1551 1553 1556 1560 1561 1562 1563 1565 1566 1569 1570 1571 1573 1576 1577 1577
1521 1523 1525 1527 1529 1530 1532 1534 1535 1536 1537 1539 1540 1542 1543 1545 1547 1549 1552 1553 1554 1559 1561 1562 1563 1567 1567 1568 1569 1571 1574 1576 1576
1520 1522 1523 1525 1528 1529 1531 1532 1534 1535 1536 1537 1539 1540 1542 1543 1545 1546 1548 1551 1553 1556 1557 1559 1560 1562 1563 1565 1567 1569 1573 1574 1573
1517 1519 1522 1523 1525 1527 1529 1530 1532 1534 1536 1536 1538 1539 1540 1542 1543 1545 1547 1549 1551 1553 1554 1555 1556 1558 1559 1560 1564 1566 1569 1571 1571
1516 1518 1520 1522 1523 1525 1528 1529 1531 1533 1534 1537 1538 1540 1540 1541 1543 1544 1545 1547 1549 1550 1550 1552 1553 1554 1555 1557 1559 1562 1564 1566 1566
1515 1517 1519 1521 1523 1525 1527 1528 1530 1532 1534 1536 1538 1540 1542 1541 1543 1544 1545 1546 1546 1547 1548 1550 1551 1552 1553 1555 1556 1557 1559 1560 1561
1513 1516 1518 1519 1522 1524 1526 1528 1530 1531 1534 1535 1537 1539 1540 1541 1542 1543 1544 1544 1545 1546 1547 1548 1549 1549 1551 1553 1555 1556 1557 1557 1558
1513 1515 1516 1518 1520 1522 1524 1526 1528 1530 1532 1534 1535 1536 1538 1539 1542 1543 1544 1544 1544 1545 1546 1547 1548 1548 1549 1550 1552 1553 1554 1554 1555
1512 1514 1516 1517 1519 1521 1523 1526 1528 1529 1531 1532 1534 1536 1537 1537 1539 1541 1543 1544 1543 1544 1545 1545 1546 1547 1547 1549 1550 1550 1551 1551 1552